Starlink 1750

operational
NORAD ID: 46337 Int'l Des: 2020-062 Owner: SPXS Country: US Constellation: starlink
LEOCIRCULAR

Über Starlink 1750

Beschreibung wird geladen...

Live-Position

3D-Globus wird geladen...

Nächste Überflüge

Höhenverlauf

Altitude vs Time

uPlot chart will show altitude changes over time

Zweizeiliger Elementsatz

1 46337U 20062N 25305.01608446 .00097903 00000-0 22103-2 0 9995
2 46337 53.0508 204.6736 0010596 110.0312 250.1834 15.42379681285333
Epoch: 1. Nov. 2025 • Age: 27 hours

Aktueller Status

Höhe 436.8 km
Geschwindigkeit 7.65 km/s
Subsatellitenpunkt -1.46°S, 75.36°W
Startdatum 3. Sept. 2020
Alter 5.1 years
Typ internet

Technische Details

Klassifizierung Payload
Masse 260.00 kg
Trockenmasse 248.00 kg
Gesamtmasse 260.00 kg
Länge 0.20 m
Durchmesser 2.80 m
Spannweite 9.00 m
Form Box + pan
Hersteller SPXS
Bus-Typ Starlink
Phasenstatus In Orbit
Besitzer/Staat SPXS/US

Große Konstellationen

Loading constellations...